| time (UTC) | temp F | wind direction | speed knots | gust knots | rain 1hr in | rain 24hr in | rain mn in | humidity % | barometer mb |
| 20260903083057 | 54 | 0 | 0.0 | 0.9 | 0.00 | 0.47 | 0.01 | 95 | 1012.0 |
| 20260903081604 | 54 | 220 | 0.0 | 2.6 | 0.01 | 0.47 | 0.01 | 95 | 1012.0 |
| 20260903080051 | 54 | 0 | 0.0 | 2.6 | 0.01 | 0.47 | 0.01 | 95 | 1012.1 |
| 20260903074556 | 54 | 0 | 0.0 | 1.7 | 0.01 | 0.47 | 0.01 | 95 | 1012.1 |
| 20260903073056 | 53 | 0 | 0.0 | 0.0 | 0.01 | 0.47 | 0.01 | 95 | 1012.0 |
| 20260903071556 | 53 | 239 | 0.0 | 0.0 | 0.00 | 0.46 | 0.00 | 95 | 1012.1 |
| 20260903070057 | 53 | 0 | 0.0 | 0.0 | 0.00 | 0.46 | 0.00 | 95 | 1012.0 |
| 20260903064555 | 54 | 0 | 0.0 | 0.9 | 0.00 | 0.46 | 0.46 | 95 | 1012.0 |
| 20260903063115 | 54 | 0 | 0.0 | 0.9 | 0.00 | 0.46 | 0.46 | 95 | 1012.0 |
| 20260903061554 | 54 | 0 | 0.0 | 0.9 | 0.00 | 0.46 | 0.46 | 95 | 1012.1 |
| 20260903060116 | 54 | 0 | 0.0 | 0.0 | 0.00 | 0.46 | 0.46 | 95 | 1011.9 |
| 20260903054556 | 54 | 0 | 0.0 | 0.0 | 0.00 | 0.46 | 0.46 | 95 | 1012.0 |
| 20260903053054 | 54 | 0 | 0.0 | 0.0 | 0.00 | 0.46 | 0.46 | 94 | 1012.0 |
| 20260903051605 | 54 | 0 | 0.0 | 0.0 | 0.00 | 0.46 | 0.46 | 94 | 1012.1 |
| 20260903050127 | 54 | 0 | 0.0 | 0.0 | 0.00 | 0.46 | 0.46 | 94 | 1012.0 |
| 20260903044555 | 54 | 0 | 0.0 | 0.0 | 0.00 | 0.46 | 0.46 | 94 | 1011.9 |
| 20260903043103 | 54 | 0 | 0.0 | 0.0 | 0.00 | 0.46 | 0.46 | 94 | 1012.0 |
| 20260903041559 | 55 | 0 | 0.0 | 0.0 | 0.00 | 0.46 | 0.46 | 94 | 1011.8 |
| 20260903040100 | 55 | 0 | 0.0 | 0.0 | 0.00 | 0.46 | 0.46 | 93 | 1011.7 |
| 20260903034552 | 55 | 0 | 0.0 | 0.0 | 0.00 | 0.46 | 0.46 | 92 | 1011.4 |
| 20260903033101 | 56 | 0 | 0.0 | 0.0 | 0.00 | 0.46 | 0.46 | 92 | 1011.3 |
| 20260903031555 | 57 | 0 | 0.0 | 0.0 | 0.00 | 0.46 | 0.46 | 92 | 1011.1 |
| 20260903030054 | 57 | 0 | 0.0 | 0.0 | 0.00 | 0.46 | 0.46 | 92 | 1011.0 |
| 20260903024552 | 58 | 0 | 0.0 | 1.7 | 0.00 | 0.46 | 0.46 | 91 | 1010.9 |
| 20260903023058 | 58 | 0 | 0.0 | 2.6 | 0.00 | 0.46 | 0.46 | 92 | 1010.8 |
| 20260903021555 | 59 | 0 | 0.0 | 0.0 | 0.00 | 0.46 | 0.46 | 91 | 1010.7 |
| 20260903020056 | 59 | 0 | 0.0 | 0.0 | 0.00 | 0.46 | 0.46 | 91 | 1010.6 |
| 20260903014556 | 59 | 0 | 0.0 | 0.0 | 0.04 | 0.46 | 0.46 | 91 | 1010.5 |
| 20260903013054 | 59 | 0 | 0.0 | 0.0 | 0.12 | 0.46 | 0.46 | 91 | 1010.4 |
| 20260903011607 | 59 | 0 | 0.0 | 1.7 | 0.14 | 0.46 | 0.46 | 90 | 1010.1 |
| 20260903010056 | 59 | 212 | 0.0 | 4.3 | 0.15 | 0.46 | 0.46 | 90 | 1010.2 |
| 20260903004553 | 60 | 0 | 0.0 | 2.6 | 0.10 | 0.41 | 0.41 | 91 | 1010.3 |
| 20260903003052 | 61 | 0 | 0.0 | 3.5 | 0.03 | 0.34 | 0.34 | 89 | 1009.6 |
| 20260903001558 | 61 | 67 | 0.9 | 4.3 | 0.01 | 0.32 | 0.32 | 86 | 1009.3 |
| 20260903000054 | 61 | 5 | 0.0 | 10.4 | 0.00 | 0.31 | 0.31 | 87 | 1009.2 |
| 20260902234553 | 60 | 0 | 0.0 | 6.1 | 0.00 | 0.31 | 0.31 | 88 | 1009.3 |
| 20260902233059 | 60 | 0 | 0.9 | 4.3 | 0.01 | 0.31 | 0.31 | 89 | 1009.2 |
| 20260902231605 | 60 | 0 | 0.0 | 3.5 | 0.03 | 0.31 | 0.31 | 90 | 1009.0 |
| 20260902230054 | 60 | 247 | 0.9 | 7.8 | 0.05 | 0.31 | 0.31 | 90 | 1009.0 |
| 20260902224559 | 60 | 0 | 0.9 | 4.3 | 0.06 | 0.31 | 0.31 | 90 | 1009.0 |
| 20260902223106 | 60 | 267 | 0.0 | 6.1 | 0.05 | 0.30 | 0.30 | 90 | 1008.9 |
| 20260902221558 | 60 | 0 | 0.0 | 4.3 | 0.03 | 0.28 | 0.28 | 89 | 1008.7 |
| 20260902214558 | 60 | 69 | 0.0 | 4.3 | 0.01 | 0.25 | 0.25 | 89 | 1008.5 |
| 20260902213056 | 60 | 0 | 0.0 | 5.2 | 0.01 | 0.25 | 0.25 | 89 | 1008.4 |
| 20260902211558 | 60 | 0 | 0.0 | 3.5 | 0.02 | 0.25 | 0.25 | 90 | 1008.5 |
| 20260902210058 | 60 | 0 | 0.0 | 3.5 | 0.01 | 0.24 | 0.24 | 90 | 1008.3 |
| 20260902204555 | 61 | 0 | 0.0 | 2.6 | 0.01 | 0.24 | 0.24 | 90 | 1008.3 |
| 20260902203052 | 60 | 0 | 0.0 | 3.5 | 0.01 | 0.24 | 0.24 | 91 | 1008.2 |
| 20260902201600 | 60 | 0 | 0.0 | 2.6 | 0.01 | 0.23 | 0.23 | 90 | 1008.1 |
| 20260902200110 | 60 | 0 | 0.0 | 4.3 | 0.01 | 0.23 | 0.23 | 91 | 1008.0 |
| 20260902194559 | 59 | 0 | 0.0 | 4.3 | 0.01 | 0.23 | 0.23 | 91 | 1008.0 |
| 20260902193101 | 59 | 151 | 0.0 | 4.3 | 0.02 | 0.23 | 0.23 | 91 | 1008.0 |
| 20260902191558 | 58 | 0 | 0.0 | 2.6 | 0.02 | 0.22 | 0.22 | 91 | 1007.9 |
| 20260902190057 | 58 | 22 | 0.0 | 3.5 | 0.02 | 0.22 | 0.22 | 91 | 1008.0 |
| 20260902184558 | 58 | 240 | 0.0 | 2.6 | 0.02 | 0.22 | 0.22 | 91 | 1007.8 |
| 20260902183051 | 58 | 0 | 0.9 | 4.3 | 0.05 | 0.21 | 0.21 | 91 | 1008.0 |
| 20260902181600 | 58 | 0 | 0.9 | 4.3 | 0.09 | 0.20 | 0.20 | 91 | 1007.9 |
| 20260902180126 | 57 | 188 | 0.0 | 4.3 | 0.13 | 0.20 | 0.20 | 91 | 1008.0 |
| 20260902174552 | 58 | 156 | 0.0 | 2.6 | 0.15 | 0.19 | 0.19 | 91 | 1008.0 |
| 20260902173057 | 58 | 0 | 0.0 | 2.6 | 0.12 | 0.16 | 0.16 | 91 | 1008.3 |
| 20260902171558 | 58 | 0 | 0.0 | 1.7 | 0.07 | 0.11 | 0.11 | 90 | 1008.2 |
| 20260902170057 | 58 | 237 | 0.0 | 2.6 | 0.04 | 0.06 | 0.06 | 89 | 1008.0 |
| 20260902164559 | 58 | 219 | 0.0 | 6.1 | 0.04 | 0.04 | 0.04 | 87 | 1007.9 |
| 20260902163103 | 58 | 230 | 0.0 | 1.7 | 0.04 | 0.04 | 0.04 | 88 | 1007.8 |
| 20260902161559 | 59 | 0 | 0.0 | 0.9 | 0.03 | 0.03 | 0.03 | 86 | 1008.0 |
| 20260902160055 | 60 | 0 | 0.0 | 0.9 | 0.02 | 0.02 | 0.02 | 82 | 1008.1 |
| 20260902154559 | 61 | 240 | 0.0 | 1.7 | 0.00 | 0.00 | 0.00 | 76 | 1008.2 |
| 20260902153053 | 60 | 0 | 0.0 | 3.5 | 0.00 | 0.00 | 0.00 | 76 | 1008.2 |
| 20260902151552 | 60 | 0 | 0.0 | 1.7 | 0.00 | 0.00 | 0.00 | 78 | 1008.3 |
| 20260902150051 | 60 | 0 | 0.0 | 0.9 | 0.00 | 0.00 | 0.00 | 80 | 1008.3 |
| 20260902144555 | 59 | 257 | 0.0 | 0.0 | 0.00 | 0.00 | 0.00 | 81 | 1008.3 |
| 20260902143056 | 59 | 0 | 0.0 | 1.7 | 0.00 | 0.00 | 0.00 | 81 | 1008.6 |
| 20260902141554 | 59 | 0 | 0.0 | 1.7 | 0.00 | 0.00 | 0.00 | 80 | 1008.8 |
| 20260902140055 | 59 | 0 | 0.0 | 3.5 | 0.00 | 0.00 | 0.00 | 82 | 1008.9 |
| 20260902134557 | 58 | 0 | 0.0 | 0.0 | 0.00 | 0.00 | 0.00 | 84 | 1009.0 |
| 20260902133051 | 58 | 0 | 0.0 | 3.5 | 0.00 | 0.00 | 0.00 | 85 | 1009.2 |
| 20260902131553 | 57 | 0 | 0.0 | 1.7 | 0.00 | 0.00 | 0.00 | 86 | 1009.3 |
| 20260902130103 | 57 | 0 | 0.0 | 1.7 | 0.00 | 0.00 | 0.00 | 87 | 1009.4 |
| 20260902124559 | 57 | 0 | 0.0 | 1.7 | 0.00 | 0.00 | 0.00 | 87 | 1009.7 |
| 20260902123057 | 57 | 0 | 0.0 | 0.9 | 0.00 | 0.00 | 0.00 | 87 | 1009.8 |
| 20260902121559 | 57 | 0 | 0.0 | 0.9 | 0.00 | 0.00 | 0.00 | 86 | 1010.0 |
| 20260902120059 | 58 | 0 | 0.0 | 0.0 | 0.00 | 0.00 | 0.00 | 86 | 1010.3 |
| 20260902114557 | 58 | 0 | 0.0 | 0.9 | 0.00 | 0.00 | 0.00 | 86 | 1010.4 |
| 20260902113058 | 57 | 210 | 0.0 | 1.7 | 0.00 | 0.00 | 0.00 | 87 | 1010.6 |
| 20260902111554 | 57 | 0 | 0.0 | 0.9 | 0.00 | 0.00 | 0.00 | 87 | 1010.8 |
| 20260902104557 | 57 | 0 | 0.0 | 0.0 | 0.00 | 0.00 | 0.00 | 87 | 1011.1 |
| 20260902103052 | 57 | 0 | 0.0 | 0.0 | 0.00 | 0.00 | 0.00 | 86 | 1011.2 |
| 20260902101549 | 58 | 121 | 0.0 | 0.9 | 0.00 | 0.00 | 0.00 | 86 | 1011.3 |
| 20260902100109 | 58 | 0 | 0.0 | 1.7 | 0.00 | 0.00 | 0.00 | 86 | 1011.4 |
| 20260902094556 | 57 | 0 | 0.0 | 0.0 | 0.00 | 0.00 | 0.00 | 86 | 1011.5 |
| 20260902093051 | 57 | 0 | 0.0 | 0.0 | 0.00 | 0.00 | 0.00 | 87 | 1011.8 |
| 20260902091556 | 57 | 0 | 0.0 | 0.0 | 0.00 | 0.00 | 0.00 | 87 | 1011.9 |
| 20260902090055 | 57 | 0 | 0.0 | 0.9 | 0.00 | 0.00 | 0.00 | 87 | 1012.0 |
| 20260902084600 | 57 | 241 | 0.0 | 0.0 | 0.00 | 0.00 | 0.00 | 87 | 1012.1 |